Wetbulb
65.04 64.70 64.17 63.69 63.36 63.29 63.40 63.41 63.70 64.02 63.95 63.91 64.04 63.98 63.76 63.43 62.19 61.28 55.33 58.28 61.89 66.44 65.69 59.62 58.77 59.21 60.31 59.68 61.76 60.75 52.17 49.14 50.35 50.74 53.18 56.37 54.46 55.18 56.05 54.39 53.66 54.99 55.36 57.35 60.77
64.84 64.29 63.23 62.92 62.45 62.58 62.52 62.64 62.65 63.12 63.69 63.98 63.91 63.83 63.47 62.86 59.94 56.19 61.97 65.61 65.97 66.61 58.12 56.55 54.75 56.94 56.51 56.58 59.33 56.45 52.02 50.83 53.82 55.12 54.72 56.52 55.81 56.12 53.55 53.99 54.00 54.49 56.76 58.63 60.38
62.71 62.64 62.25 61.87 61.92 61.71 61.76 62.00 62.44 62.83 63.39 63.77 63.80 63.59 62.94 62.31 56.56 54.44 65.87 67.77 67.08 63.66 58.01 57.97 56.82 55.27 54.18 55.61 56.86 56.51 52.14 54.72 54.23 55.82 56.85 55.96 55.67 57.12 54.47 54.46 56.14 55.42 55.98 57.65 59.14
61.19 61.05 60.81 60.72 60.77 60.78 60.86 61.00 61.77 62.53 63.35 63.24 62.91 62.82 62.71 60.54 46.37 56.65 66.46 67.25 66.23 60.19 57.08 55.40 54.82 52.78 51.68 51.34 53.82 51.50 55.41 55.61 55.74 56.02 56.39 55.30 56.73 54.69 55.53 56.85 58.99 58.92 58.98 58.15 58.45
59.50 59.50 59.36 59.36 58.64 59.05 59.86 60.28 60.94 61.92 62.65 62.18 61.92 61.90 61.09 53.51 51.47 57.55 65.92 63.13 58.46 56.72 54.71 53.61 52.00 52.38 50.14 51.08 51.63 50.33 51.79 52.81 55.04 55.59 55.68 56.66 54.85 55.23 55.98 58.20 59.39 57.74 57.52 57.87 58.47
58.00 57.85 57.58 57.14 57.17 57.24 58.42 59.48 59.71 61.11 61.78 61.94 61.76 60.97 58.25 48.36 54.50 57.76 57.15 56.78 56.82 55.90 54.11 54.26 52.73 53.53 51.20 50.38 49.79 51.67 51.22 51.51 52.66 52.36 53.06 52.21 53.34 54.80 55.61 57.81 57.75 57.97 56.27 57.52 58.22
56.82 56.59 56.24 56.37 56.95 57.41 57.68 58.68 59.30 60.42 61.42 61.54 61.53 60.84 53.69 51.20 56.20 57.77 57.17 56.53 56.97 56.29 54.05 54.73 54.31 51.36 51.72 49.82 52.87 51.30 47.95 49.62 50.18 51.32 50.57 51.03 47.89 49.40 54.97 55.93 55.25 55.40 56.87 56.94 57.51
56.29 56.02 55.53 56.01 56.37 56.63 57.28 57.97 58.75 60.46 61.29 61.09 61.38 59.38 51.24 55.79 57.58 56.14 57.26 56.53 57.28 56.93 55.83 56.05 55.89 53.48 50.93 52.10 49.41 47.94 48.93 45.83 49.18 49.05 49.44 48.82 44.40 50.82 53.50 53.46 52.69 54.43 54.11 55.58 56.11
55.88 55.52 55.16 55.99 56.41 56.82 57.33 57.97 59.75 60.67 60.61 60.58 58.94 54.87 49.94 58.34 54.09 55.07 56.36 54.32 55.30 55.76 56.31 55.53 54.84 51.86 51.06 47.15 45.71 47.58 44.22 46.11 47.22 50.41 49.25 48.39 46.39 50.81 52.82 51.82 51.41 52.25 52.72 53.07 54.07
55.77 56.21 56.17 56.18 56.31 56.76 57.77 59.53 60.92 58.26 59.61 60.17 57.67 51.42 52.90 50.36 54.30 54.76 56.10 55.39 53.41 53.40 52.56 52.20 51.55 48.92 49.13 46.19 40.94 43.18 43.66 45.05 45.27 48.72 48.35 47.19 46.86 49.76 51.41 51.31 51.17 51.54 52.14 52.65 52.75
56.24 56.38 55.94 55.86 56.19 56.56 58.65 61.23 56.40 53.98 55.65 52.17 51.87 50.33 50.67 55.27 56.00 53.40 54.89 53.76 53.09 51.27 47.08 49.77 45.73 45.13 46.42 47.28 47.24 45.76 44.78 44.37 46.98 48.82 45.92 45.71 46.02 47.89 50.15 50.64 50.79 51.40 51.76 52.25 52.93
56.25 56.23 55.69 55.49 55.40 56.02 60.64 56.05 53.59 53.94 50.02 53.71 52.67 52.58 54.39 55.07 50.45 51.63 54.73 50.14 49.26 46.18 47.65 46.20 44.28 47.32 47.25 47.04 46.15 45.75 44.18 44.31 46.33 46.86 45.72 45.95 45.73 48.61 47.82 48.56 50.70 51.18 51.81 52.28 53.15
55.60 55.89 55.37 55.24 54.91 57.85 58.12 54.39 58.74 58.07 50.42 50.76 52.20 51.66 51.83 53.31 49.61 50.16 51.89 50.46 47.83 46.00 45.97 44.00 46.00 47.32 45.99 45.51 44.38 45.03 43.92 43.85 42.74 45.62 47.35 45.82 45.82 46.96 49.79 50.99 50.51 50.14 51.33 52.78 53.03
55.77 55.20 55.02 54.66 53.12 54.33 56.61 57.70 59.64 58.66 47.78 46.07 49.51 51.57 52.05 52.78 48.69 52.52 52.54 50.39 47.79 45.33 46.06 45.77 47.42 44.76 44.52 43.88 44.97 41.83 45.64 44.16 43.76 43.06 40.17 45.95 40.50 46.58 49.23 49.09 50.26 51.73 52.65 51.87 51.99
55.06 54.61 54.57 53.24 52.13 51.96 55.20 57.74 59.19 55.46 39.74 47.31 49.12 53.98 51.40 49.62 48.54 49.30 52.46 50.33 46.04 46.62 45.64 44.61 44.39 44.28 43.95 44.76 45.67 43.83 46.18 44.94 44.46 42.77 42.47 43.04 40.61 45.37 48.13 46.14 47.79 49.76 51.02 51.90 52.82
54.60 54.18 53.39 53.56 53.53 55.11 56.45 57.89 55.83 44.85 38.74 44.42 48.13 47.40 47.30 47.96 48.08 49.42 49.29 51.08 50.13 46.60 47.35 46.17 48.66 46.28 45.90 46.28 46.08 46.56 44.93 45.43 45.11 43.44 38.88 41.64 41.66 42.54 44.38 45.85 47.48 49.35 50.50 51.49 52.26
53.87 53.69 53.08 54.83 50.80 55.50 56.45 55.40 44.75 39.69 44.03 43.10 44.08 46.23 46.13 45.99 46.52 47.07 46.56 46.17 44.76 42.08 43.38 45.33 44.99 46.33 46.11 44.00 46.62 45.13 43.03 39.69 38.92 39.53 39.04 42.57 41.16 43.05 46.05 47.28 48.45 48.87 50.13 51.54 52.54
53.00 52.72 53.67 55.00 55.53 56.21 56.51 48.34 38.30 41.07 42.77 46.16 45.35 45.83 43.63 44.91 45.66 45.75 45.21 44.72 46.52 44.71 42.84 41.52 39.82 43.36 45.91 44.74 43.55 43.66 43.55 39.36 33.78 36.43 38.67 42.20 39.31 43.41 47.52 48.47 49.56 50.79 51.25 51.86 52.24
52.18 52.80 53.85 53.90 56.97 57.49 51.59 41.61 40.32 42.28 44.94 44.12 45.30 42.69 43.50 44.08 43.90 44.56 44.71 44.01 44.80 45.33 41.46 41.15 41.16 44.46 44.54 45.58 45.08 43.14 40.84 43.86 39.91 40.77 37.78 41.83 42.52 46.18 47.72 47.60 49.06 49.90 51.05 51.83 52.01
49.53 50.23 50.39 54.86 57.49 55.29 47.61 41.55 42.80 46.06 46.69 46.19 41.38 43.14 41.23 42.72 43.11 43.45 43.65 45.28 43.95 45.49 45.94 43.78 39.29 43.19 43.57 45.21 45.29 43.60 45.24 40.44 41.19 34.83 34.74 39.39 40.04 42.63 44.83 47.16 48.78 49.11 49.82 50.73 51.81
49.56 46.91 50.69 54.54 55.90 49.74 42.58 43.07 43.96 47.62 47.30 44.53 43.37 42.28 42.50 42.38 43.92 43.11 42.22 44.56 46.14 45.46 45.95 44.94 42.57 41.56 43.34 42.49 43.11 42.19 41.60 41.90 42.21 40.93 36.90 36.65 40.62 47.77 47.52 47.81 47.90 49.07 49.87 50.35 50.78
47.79 43.06 51.37 53.94 45.88 46.30 43.32 43.30 44.20 44.93 47.11 45.66 46.23 44.86 43.56 44.06 43.26 42.71 41.69 43.49 47.09 47.25 43.54 45.04 42.55 39.73 42.53 43.45 44.33 44.34 43.60 43.73 39.35 38.42 39.93 39.19 40.19 47.56 48.54 47.93 49.55 49.00 49.53 50.38 51.07
43.46 43.76 51.36 51.79 42.36 42.70 43.32 42.32 44.10 43.48 43.38 43.55 43.06 44.84 45.85 43.17 40.19 43.45 43.46 45.29 46.59 45.79 42.99 45.66 42.08 37.58 40.55 41.55 42.72 41.23 43.07 43.02 42.98 42.12 38.72 36.83 40.50 48.47 48.82 49.42 49.26 48.37 49.24 50.47 51.24
44.37 40.23 44.28 46.29 45.09 41.66 39.33 39.43 39.68 44.41 42.90 44.04 42.51 44.29 42.18 41.48 44.53 41.95 42.29 44.27 45.48 44.55 45.78 46.77 42.91 40.06 36.58 39.18 41.35 39.22 40.98 41.75 41.16 37.82 39.18 40.04 41.59 45.58 47.37 46.66 47.10 47.85 48.55 48.86 49.39
43.78 38.89 40.25 37.29 38.76 39.43 39.97 38.82 37.18 36.69 41.30 43.19 40.17 39.31 38.48 37.29 39.51 39.95 40.84 41.99 44.21 43.94 43.94 43.49 38.86 41.94 42.51 42.64 42.15 41.29 40.86 41.63 40.01 41.00 37.58 40.58 41.29 44.39 45.86 44.43 45.99 47.19 46.61 46.63 47.20
41.47 40.39 43.11 39.12 39.31 38.08 37.21 35.82 34.87 35.79 37.05 37.34 36.52 37.22 38.34 36.36 37.20 34.23 37.48 38.96 38.68 41.73 40.11 41.96 36.85 40.08 37.77 41.03 41.24 39.35 41.50 41.75 41.72 41.99 41.84 42.12 41.52 46.38 45.19 45.40 45.00 45.91 45.12 44.95 45.82
46.55 45.96 42.25 35.74 37.06 35.87 35.80 35.02 34.82 36.93 38.10 38.42 37.14 36.17 35.42 37.27 39.67 40.19 40.63 40.23 39.81 37.62 36.99 37.16 36.61 36.17 32.74 38.98 39.05 34.98 39.68 40.97 41.87 43.09 42.72 39.29 42.16 42.86 41.55 41.97 42.74 44.43 45.56 44.23 44.67
MSLP
1021.86 1021.50 1021.22 1020.89 1020.48 1020.02 1019.57 1019.08 1018.59 1018.12 1017.67 1017.21 1016.78 1016.40 1016.02 1015.62 1014.76 1013.56 1012.40 1012.07 1011.77 1011.99 1011.97 1010.96 1010.66 1010.20 1010.08 1009.73 1009.87 1009.61 1008.65 1007.33 1006.86 1006.70 1006.39 1007.14 1007.51 1008.03 1008.29 1008.40 1009.04 1009.39 1009.49 1010.43 1011.58
1022.04 1021.67 1021.38 1020.96 1020.51 1020.02 1019.51 1019.00 1018.48 1017.96 1017.46 1017.00 1016.59 1016.22 1015.88 1015.58 1014.32 1012.36 1012.12 1011.98 1012.14 1012.06 1011.37 1010.65 1010.07 1009.99 1009.50 1009.54 1009.55 1009.25 1008.33 1007.35 1007.11 1007.01 1007.00 1007.32 1007.63 1007.51 1008.32 1008.16 1008.52 1009.22 1010.25 1010.84 1011.81
1022.31 1021.91 1021.50 1021.04 1020.53 1020.00 1019.41 1018.85 1018.29 1017.71 1017.18 1016.71 1016.35 1016.03 1015.74 1015.41 1013.44 1011.33 1012.06 1012.13 1012.20 1012.11 1011.26 1010.91 1010.51 1010.11 1009.55 1009.55 1009.12 1008.71 1008.38 1007.76 1007.91 1007.93 1007.85 1007.73 1007.77 1007.86 1007.81 1007.45 1007.54 1008.03 1009.21 1010.69 1011.38
1022.52 1022.06 1021.61 1021.08 1020.53 1019.93 1019.30 1018.67 1018.09 1017.45 1016.87 1016.41 1016.07 1015.82 1015.61 1014.64 1012.38 1011.91 1012.27 1012.24 1012.22 1011.89 1011.15 1010.62 1010.25 1009.84 1009.57 1009.19 1009.07 1009.08 1008.37 1008.35 1008.20 1008.24 1008.39 1007.97 1007.58 1007.67 1007.64 1007.21 1007.05 1007.51 1007.97 1009.82 1010.52
1022.62 1022.10 1021.56 1021.02 1020.44 1019.81 1019.11 1018.42 1017.83 1017.17 1016.57 1016.09 1015.78 1015.67 1015.33 1013.27 1011.53 1011.67 1012.18 1012.15 1011.84 1011.49 1010.95 1010.64 1010.16 1009.82 1009.46 1009.13 1009.09 1008.78 1008.43 1008.49 1008.41 1008.57 1008.50 1008.24 1007.98 1007.54 1006.97 1007.06 1007.17 1007.78 1008.24 1009.00 1009.59
1022.67 1022.14 1021.55 1020.93 1020.28 1019.60 1018.90 1018.14 1017.55 1016.92 1016.30 1015.78 1015.56 1015.62 1014.61 1012.38 1011.46 1011.54 1011.84 1011.76 1011.41 1011.16 1010.92 1010.76 1010.44 1010.38 1009.90 1009.46 1009.21 1008.64 1008.77 1008.47 1008.27 1008.27 1008.18 1008.20 1007.75 1007.35 1006.69 1006.85 1006.78 1006.94 1007.87 1008.19 1008.75
1022.71 1022.15 1021.53 1020.86 1020.10 1019.29 1018.57 1017.81 1017.21 1016.61 1016.03 1015.57 1015.45 1015.00 1013.23 1011.59 1011.43 1011.47 1011.70 1011.46 1011.51 1011.28 1010.97 1011.09 1011.04 1010.78 1010.09 1009.42 1009.27 1009.13 1008.67 1007.91 1007.61 1007.72 1007.87 1008.23 1007.32 1006.35 1006.26 1006.33 1005.99 1006.20 1006.56 1007.37 1007.73
1022.77 1022.14 1021.49 1020.71 1019.88 1018.97 1018.12 1017.36 1016.75 1016.21 1015.76 1015.55 1015.49 1014.42 1012.01 1011.51 1011.53 1011.58 1011.31 1011.21 1011.43 1011.37 1011.33 1011.44 1011.33 1010.93 1010.46 1009.88 1009.47 1008.82 1008.01 1007.18 1007.25 1007.75 1008.16 1008.54 1006.41 1005.45 1004.98 1005.02 1005.13 1005.19 1005.57 1006.03 1006.69
1022.77 1022.11 1021.37 1020.48 1019.52 1018.51 1017.56 1016.71 1016.00 1015.65 1015.55 1015.47 1015.07 1013.63 1011.33 1011.81 1011.51 1011.45 1011.23 1010.94 1011.11 1011.32 1011.37 1011.46 1011.24 1010.64 1010.28 1009.77 1008.45 1007.84 1007.04 1006.62 1006.75 1007.40 1007.70 1007.93 1006.12 1005.28 1005.18 1005.24 1004.96 1004.87 1004.90 1005.10 1005.67
1022.80 1022.10 1021.28 1020.29 1019.21 1018.06 1016.92 1015.64 1015.38 1015.54 1015.27 1014.56 1014.03 1013.53 1011.63 1011.44 1011.81 1011.79 1011.33 1011.37 1011.09 1011.08 1011.04 1010.99 1010.50 1010.10 1009.39 1008.93 1007.77 1007.55 1007.07 1006.75 1006.76 1007.01 1007.42 1007.00 1005.58 1005.00 1004.58 1004.39 1004.43 1004.55 1004.34 1004.46 1004.89
1022.79 1022.04 1021.17 1020.18 1018.99 1017.69 1016.44 1014.14 1015.06 1014.77 1013.96 1013.65 1013.30 1012.82 1012.09 1012.06 1012.00 1011.49 1011.31 1011.25 1011.12 1010.91 1010.33 1010.25 1010.03 1008.78 1008.42 1008.90 1008.92 1008.76 1008.17 1007.46 1006.94 1006.90 1007.44 1006.36 1005.16 1004.26 1003.74 1003.44 1003.49 1003.67 1004.01 1003.75 1004.14
1022.79 1022.03 1021.09 1020.02 1018.99 1017.68 1015.66 1015.83 1017.70 1018.26 1015.49 1013.80 1013.53 1013.19 1012.74 1012.66 1011.68 1011.22 1011.44 1011.14 1010.81 1010.29 1010.29 1010.28 1009.34 1008.99 1009.63 1009.65 1009.51 1008.95 1008.34 1007.59 1007.12 1007.40 1007.43 1005.88 1004.65 1003.60 1003.54 1003.27 1002.75 1003.02 1003.34 1003.51 1003.55
1022.72 1021.94 1021.01 1019.82 1018.69 1017.73 1017.21 1017.83 1017.85 1017.80 1015.98 1013.50 1013.02 1012.62 1012.47 1012.66 1011.44 1010.89 1011.34 1010.86 1010.66 1010.24 1009.97 1009.71 1009.19 1009.98 1010.03 1009.70 1009.50 1008.88 1008.43 1008.06 1008.01 1007.60 1006.43 1005.93 1003.71 1003.27 1003.35 1003.21 1003.34 1003.52 1003.65 1003.51 1003.40
1022.65 1021.92 1020.96 1019.77 1018.81 1017.90 1017.47 1017.96 1017.55 1017.55 1014.95 1013.23 1012.47 1012.31 1012.45 1012.30 1011.70 1011.62 1011.41 1011.37 1010.77 1010.36 1010.20 1009.80 1009.93 1010.21 1010.09 1009.78 1009.54 1008.95 1009.05 1009.01 1008.56 1007.88 1006.42 1006.07 1004.03 1003.07 1003.00 1003.69 1003.76 1003.69 1003.77 1003.92 1004.04
1022.60 1021.87 1021.02 1020.52 1019.20 1017.81 1018.37 1018.02 1017.65 1017.16 1014.03 1012.85 1012.23 1012.39 1012.11 1011.91 1011.69 1011.52 1011.81 1011.41 1010.86 1010.34 1010.85 1009.42 1009.85 1010.16 1010.07 1009.63 1009.87 1009.25 1009.62 1009.22 1008.77 1007.95 1007.01 1005.96 1005.19 1003.53 1004.15 1004.49 1004.61 1004.66 1004.69 1004.72 1004.71
1022.48 1021.72 1020.96 1019.45 1018.68 1018.61 1018.46 1018.07 1017.48 1015.58 1012.64 1012.29 1012.04 1011.88 1011.65 1011.65 1011.41 1011.52 1011.48 1011.68 1011.32 1010.76 1010.26 1009.87 1010.14 1010.50 1010.04 1010.29 1010.37 1010.22 1009.57 1008.48 1008.33 1007.65 1006.29 1005.68 1005.33 1004.68 1004.89 1005.45 1005.38 1005.42 1005.47 1005.33 1005.09
1022.32 1021.47 1020.82 1019.88 1019.17 1018.95 1018.47 1017.10 1015.37 1013.47 1012.70 1012.34 1012.14 1011.95 1011.64 1011.20 1011.18 1011.27 1010.99 1010.94 1010.71 1010.35 1009.38 1009.37 1009.72 1010.39 1010.85 1010.32 1010.23 1010.29 1009.42 1007.54 1007.00 1006.45 1005.32 1005.90 1005.31 1005.33 1005.77 1006.18 1005.99 1005.90 1005.93 1005.85 1005.64
1022.05 1021.20 1020.30 1019.79 1019.31 1018.95 1017.90 1016.07 1014.28 1013.52 1013.21 1013.33 1012.77 1012.17 1011.61 1011.62 1011.33 1011.30 1011.13 1010.68 1011.15 1011.19 1010.34 1009.42 1009.60 1010.40 1010.79 1010.50 1010.05 1009.71 1009.43 1008.26 1007.17 1005.99 1005.48 1005.92 1004.85 1005.03 1005.75 1006.36 1006.30 1006.10 1006.32 1006.27 1005.97
1021.63 1019.87 1019.26 1019.40 1019.27 1018.79 1017.29 1015.11 1014.86 1014.97 1015.03 1014.29 1013.09 1012.30 1011.68 1011.97 1011.93 1011.43 1011.36 1011.76 1012.17 1012.05 1011.40 1010.27 1009.92 1010.89 1011.12 1011.07 1011.02 1010.21 1009.75 1009.52 1008.31 1007.26 1006.37 1004.67 1004.89 1005.27 1005.57 1005.97 1006.24 1006.09 1006.09 1006.16 1006.06
1021.56 1020.04 1019.25 1019.28 1018.98 1018.09 1016.49 1015.72 1015.95 1016.61 1016.31 1015.37 1013.96 1013.55 1012.42 1012.39 1012.21 1011.86 1011.99 1013.68 1013.59 1013.44 1013.04 1011.47 1010.84 1010.81 1011.33 1011.42 1011.27 1010.88 1010.48 1009.59 1008.77 1007.43 1005.80 1004.35 1004.00 1003.43 1005.06 1005.37 1006.06 1006.09 1006.44 1006.63 1006.52
1021.33 1019.43 1019.46 1019.16 1018.50 1017.24 1016.12 1016.81 1017.35 1017.56 1017.42 1016.71 1015.75 1014.88 1014.19 1013.80 1013.37 1012.81 1013.30 1015.03 1015.23 1014.56 1013.79 1012.65 1011.77 1011.17 1011.20 1010.69 1009.96 1010.91 1010.24 1010.00 1009.34 1008.28 1006.73 1005.20 1003.95 1003.46 1004.58 1005.86 1006.22 1006.56 1007.10 1007.17 1007.23
1021.42 1019.57 1019.89 1019.17 1017.77 1017.79 1017.24 1018.61 1019.16 1018.44 1018.15 1017.58 1017.13 1016.62 1015.92 1015.45 1014.59 1014.33 1014.62 1016.18 1016.61 1015.81 1014.60 1013.71 1012.78 1011.14 1010.19 1010.84 1010.97 1010.65 1010.06 1009.65 1009.17 1008.58 1007.95 1007.12 1005.48 1004.85 1005.26 1006.36 1006.62 1007.54 1008.01 1008.15 1008.27
1022.06 1021.26 1020.30 1019.28 1018.29 1018.41 1019.37 1019.57 1019.70 1019.41 1019.37 1018.87 1018.25 1018.32 1017.69 1016.89 1016.30 1016.01 1016.53 1017.77 1017.62 1017.05 1016.76 1015.69 1013.24 1011.68 1009.94 1011.30 1011.53 1011.09 1010.65 1010.73 1010.37 1010.02 1008.76 1007.68 1005.83 1005.61 1006.17 1006.41 1007.81 1008.67 1009.16 1009.17 1009.09
1022.89 1021.45 1020.92 1020.53 1021.25 1020.51 1020.46 1020.50 1020.38 1020.77 1020.42 1020.20 1019.85 1019.25 1018.74 1017.84 1017.67 1017.23 1017.68 1018.28 1018.42 1018.19 1017.88 1016.71 1014.68 1013.18 1011.92 1011.79 1012.59 1011.98 1011.60 1011.57 1011.22 1010.32 1009.12 1008.05 1007.31 1006.58 1006.97 1008.18 1009.31 1009.79 1010.14 1010.20 1010.12
1023.90 1023.93 1024.17 1022.29 1022.10 1022.03 1021.94 1021.87 1021.47 1021.60 1021.60 1021.29 1021.14 1021.12 1020.65 1019.51 1018.85 1018.44 1019.12 1018.94 1018.55 1018.76 1018.05 1017.38 1015.66 1014.30 1013.27 1013.21 1013.13 1012.59 1012.24 1011.99 1011.61 1011.06 1010.23 1009.28 1008.71 1008.81 1009.47 1010.35 1010.32 1010.65 1011.10 1010.95 1010.96
1024.70 1024.89 1024.45 1024.36 1023.86 1023.00 1023.08 1022.98 1023.01 1023.04 1022.87 1022.22 1022.29 1022.44 1021.94 1021.26 1020.90 1020.81 1020.77 1020.23 1019.51 1019.14 1018.83 1018.11 1016.64 1015.45 1014.29 1014.00 1013.27 1012.07 1011.84 1011.78 1011.43 1011.23 1010.69 1010.69 1009.79 1010.83 1011.77 1011.93 1011.91 1011.66 1012.01 1011.83 1011.73
1026.29 1026.13 1025.46 1025.73 1024.88 1024.26 1024.14 1024.29 1024.33 1024.25 1023.83 1023.84 1023.81 1023.34 1022.71 1022.40 1022.36 1022.04 1021.66 1021.21 1020.58 1020.14 1019.69 1019.05 1017.70 1016.37 1014.02 1013.98 1013.08 1011.65 1011.04 1010.76 1010.55 1011.07 1010.97 1011.31 1011.86 1012.87 1013.02 1013.03 1012.97 1012.58 1012.35 1012.33 1012.30
Wind_Speed
12 13 16 17 18 18 18 19 19 18 17 17 17 16 16 15 20 11 10 4 4 4 6 7 6 5 6 3 4 3 7 9 12 11 7 7 8 4 3 4 5 5 3 7 17
14 15 17 18 19 18 18 19 20 19 18 17 17 16 16 14 14 12 5 5 3 5 8 6 6 5 6 4 4 7 7 7 5 7 6 3 8 6 6 9 8 8 8 9 16
17 18 18 19 19 20 20 20 20 20 19 18 16 14 15 14 11 6 6 2 3 7 8 7 7 8 8 4 6 5 10 6 6 6 6 9 6 7 9 9 9 11 15 13 15
17 18 19 19 20 21 21 21 21 21 20 18 15 13 11 8 3 6 5 2 4 8 8 6 6 6 7 8 3 9 10 7 6 3 8 9 7 7 12 12 1 3 6 17 17
18 19 20 21 22 23 23 22 22 22 20 16 13 10 8 7 6 5 1 4 7 5 4 6 9 4 8 4 6 12 12 4 7 7 10 11 12 14 15 12 12 5 6 16 16
19 20 21 23 24 24 24 23 24 22 20 15 9 5 9 10 4 3 1 3 3 4 2 5 5 7 9 8 8 9 9 11 10 11 11 12 15 17 13 14 17 14 13 14 16
19 20 22 23 23 24 24 23 23 21 17 11 5 6 8 7 1 1 2 1 1 3 4 2 5 7 7 9 5 10 12 11 13 14 12 5 17 23 20 18 18 16 16 16 17
20 21 23 23 24 25 25 24 22 20 11 5 4 8 7 4 5 6 5 6 3 2 2 2 4 7 7 7 11 10 10 9 7 3 4 6 15 14 6 13 17 17 16 17 19
21 22 24 24 25 26 26 25 22 10 3 4 7 6 4 4 3 2 5 6 3 3 1 3 5 6 5 10 9 9 9 4 2 6 2 10 13 11 1 7 12 13 14 15 16
22 22 24 26 27 27 25 23 4 4 6 6 6 7 5 2 2 4 2 4 6 4 8 7 6 7 8 7 8 10 9 9 7 4 8 15 23 20 18 18 17 16 15 14 15
21 22 24 27 27 28 16 4 5 7 3 7 5 5 1 6 3 6 2 5 6 8 10 4 8 9 9 6 7 8 10 11 11 6 7 14 20 20 18 18 17 17 17 16 15
21 23 25 28 27 25 9 6 7 4 6 2 5 6 8 4 3 5 3 6 5 8 1 7 11 6 3 4 7 10 11 12 8 1 9 15 22 18 8 8 12 16 15 16 15
23 23 25 28 25 10 9 9 8 3 7 3 1 2 1 5 3 4 4 1 7 9 9 11 6 3 3 6 9 10 9 11 13 14 14 12 6 11 10 9 7 1 8 11 12
22 23 25 27 11 7 3 10 7 4 6 5 3 4 4 3 5 2 1 4 4 7 5 9 4 4 7 9 8 12 6 6 10 11 8 10 3 12 10 16 14 12 8 5 6
22 23 24 16 9 5 8 10 4 5 6 3 4 3 1 5 2 4 0 5 10 8 4 1 3 5 7 5 3 4 4 8 11 12 11 6 6 12 17 16 18 18 17 14 9
22 23 22 0 5 6 11 11 5 7 2 4 2 0 4 5 2 1 3 4 3 7 11 16 1 5 7 2 4 6 10 14 8 7 6 5 4 10 6 11 14 16 18 18 17
24 22 12 6 6 13 10 6 7 6 3 4 2 2 3 1 3 3 4 6 6 6 5 6 8 1 4 8 8 8 10 4 6 6 4 3 6 7 9 10 13 15 15 17 17
25 23 3 2 8 8 7 6 7 4 5 2 2 5 4 1 3 2 4 6 3 6 8 6 5 4 3 4 6 1 6 6 5 4 5 4 4 8 10 8 5 13 16 15 17
25 3 3 8 7 5 6 7 9 7 6 8 5 5 5 2 4 3 1 7 5 6 6 6 2 4 1 2 4 5 4 4 6 4 5 3 5 7 9 8 2 13 16 19 19
7 3 7 12 7 6 5 5 4 6 8 6 6 3 4 2 5 3 3 8 6 5 6 4 7 2 4 3 3 6 4 4 5 4 4 6 4 6 13 6 10 13 19 19 18
5 3 9 14 5 6 4 6 3 5 7 6 6 6 4 5 6 4 5 7 9 8 7 7 4 6 4 8 1 5 5 5 4 4 4 5 5 7 11 10 12 16 19 18 18
5 1 9 10 3 2 1 5 2 5 7 2 4 6 6 6 7 5 3 10 13 7 5 7 7 8 9 6 3 4 7 6 5 4 4 4 4 3 6 4 14 18 17 17 15
4 4 5 9 2 3 3 2 5 7 8 6 4 6 5 5 5 4 4 5 10 11 9 10 6 7 7 4 2 5 2 7 7 6 11 6 2 7 8 11 20 17 16 14 16
4 2 4 5 5 6 4 4 2 6 6 5 7 3 7 7 3 4 4 2 6 7 10 7 9 11 12 9 5 6 2 4 7 8 11 13 15 16 17 19 16 16 15 14 15
5 5 4 4 6 6 6 4 3 5 6 7 3 9 8 5 8 9 7 10 3 3 8 8 9 13 11 13 13 16 16 16 16 17 16 16 19 17 15 14 16 13 14 15 16
4 5 1 4 5 4 2 4 6 7 7 3 5 7 7 7 7 9 9 11 7 5 10 7 9 13 18 17 20 24 21 21 23 22 24 22 25 9 8 10 11 9 12 14 15
2 2 5 3 4 5 4 5 5 8 5 4 7 10 9 10 9 12 12 13 15 16 14 10 7 10 17 15 16 17 15 14 20 22 22 21 7 8 10 12 13 14 9 13 16
Wind_Direction
356 358 348 343 340 335 330 328 327 324 319 316 315 315 317 319 306 250 262 36 15 343 302 279 259 274 245 235 260 266 257 252 232 238 246 106 217 158 38 197 198 167 19 102 135
354 355 346 341 337 332 329 326 325 321 314 310 310 312 314 320 296 272 74 49 335 323 275 319 277 285 242 248 221 248 249 270 335 294 284 144 247 189 211 209 200 181 118 140 151
355 348 342 339 335 332 328 324 321 318 313 310 305 304 307 309 277 94 46 69 299 284 285 293 280 270 265 257 232 234 260 354 279 262 282 282 255 231 232 235 231 202 175 173 174
349 344 340 338 334 330 326 324 322 320 317 313 303 298 309 266 318 70 8 326 272 287 275 280 260 254 264 249 224 269 242 287 283 293 275 265 278 241 237 251 345 252 147 175 188
347 343 339 336 333 329 324 322 321 321 319 313 298 294 280 231 261 89 317 208 254 272 298 312 284 277 260 285 271 252 271 293 269 276 264 275 264 269 262 236 251 218 219 186 197
347 343 339 335 330 326 322 319 320 319 318 311 285 282 249 260 88 63 359 241 284 280 339 291 335 332 295 282 274 332 292 279 268 262 260 264 269 259 249 249 250 227 223 214 210
349 345 339 334 328 324 319 315 316 312 311 315 247 244 257 276 46 317 201 228 284 314 308 1 331 286 338 268 289 276 279 272 246 243 252 278 263 254 254 251 260 241 223 227 220
347 344 337 331 325 321 315 312 308 305 294 289 229 249 276 90 333 237 200 205 211 208 288 317 302 289 268 320 264 263 257 268 112 179 181 223 278 281 268 239 242 242 247 223 226
345 341 335 329 324 318 313 307 300 283 253 212 234 247 253 135 207 345 246 233 202 210 213 221 254 282 245 247 263 204 296 309 265 188 250 217 285 288 107 269 253 241 238 234 225
343 337 332 329 325 320 314 293 297 224 212 233 263 250 208 67 342 319 205 238 241 248 236 234 239 254 218 247 308 334 311 316 296 179 226 272 274 277 271 252 244 249 251 231 228
340 336 332 330 327 320 320 247 219 180 228 320 347 320 56 339 208 208 177 195 224 240 257 169 270 247 341 325 317 302 294 291 295 353 303 277 290 293 287 264 250 240 242 239 220
341 338 333 330 327 319 323 55 45 326 311 222 276 273 262 308 259 190 217 232 212 254 228 233 242 14 325 292 273 281 283 287 326 50 293 295 301 290 12 333 259 238 235 241 231
342 338 334 329 322 305 54 41 335 216 264 142 273 293 34 219 259 145 235 262 259 267 255 271 329 74 279 270 272 270 277 304 312 317 270 312 239 74 96 80 97 220 271 263 247
340 338 335 330 297 350 71 355 345 218 263 120 151 108 172 253 220 352 264 288 223 289 307 273 65 278 263 269 278 281 27 308 299 313 321 357 322 74 55 40 39 33 40 35 260
339 336 330 330 319 330 349 329 334 231 276 73 105 57 148 263 27 136 128 213 263 266 246 354 248 257 266 316 295 340 332 288 295 286 296 154 246 83 60 58 56 62 60 54 42
336 331 330 117 260 2 323 314 245 232 156 111 97 61 218 199 170 128 227 227 323 276 242 265 209 268 288 328 265 325 279 264 254 263 227 95 290 63 47 63 70 56 46 37 36
333 325 322 290 344 325 312 256 247 257 146 87 28 348 304 188 204 253 236 218 262 286 195 207 211 202 264 258 204 255 275 271 205 203 37 102 279 62 112 95 63 48 40 29 22
327 313 189 298 321 313 284 242 253 57 28 8 308 284 265 353 163 234 257 253 150 275 292 298 205 196 125 279 339 311 321 314 300 328 346 154 220 131 142 121 76 45 36 24 15
312 331 329 359 333 297 266 238 12 21 352 339 283 259 165 189 277 249 221 12 18 345 294 311 159 122 55 318 287 122 220 15 291 224 265 148 116 156 191 171 203 33 23 17 13
317 314 29 347 324 268 257 52 37 18 338 318 308 346 298 35 268 231 165 34 341 356 318 2 287 111 105 225 208 281 353 231 192 278 270 161 197 151 186 183 45 16 17 9 11
284 260 16 338 278 237 279 55 43 22 2 340 346 299 330 329 306 291 47 75 4 326 312 303 247 133 190 201 202 172 220 230 301 270 297 314 81 79 154 83 20 9 10 1 17
307 289 359 330 240 305 32 17 301 355 2 342 306 319 314 325 302 296 344 24 356 323 350 27 305 274 281 80 23 314 294 278 259 183 257 308 289 88 92 80 7 11 357 17 8
3 337 358 309 324 79 97 69 43 10 19 0 10 356 340 301 293 347 14 23 13 23 21 348 237 282 199 152 158 239 212 278 303 284 253 259 186 132 163 331 16 360 12 4 11
311 327 28 56 36 346 345 30 6 28 40 13 1 308 321 270 233 307 334 46 0 13 318 303 277 279 288 345 328 288 261 278 286 269 255 241 264 288 318 357 354 6 6 8 12
353 57 359 15 37 3 355 346 345 14 354 11 86 28 358 288 314 288 0 329 216 19 346 344 277 286 282 298 286 280 277 272 259 260 263 275 285 299 345 348 352 6 6 9 5
11 339 57 15 345 337 359 38 33 358 347 23 14 340 323 298 313 300 310 311 295 349 345 328 282 300 279 278 274 273 268 269 262 260 262 268 271 346 348 349 349 356 358 1 356
74 108 298 26 346 309 44 26 17 349 98 49 344 323 314 339 332 307 293 281 273 283 290 278 280 296 278 281 289 278 270 274 259 259 253 263 345 9 350 341 333 320 327 353 348